Погода в Ивделе

Погода в Ивделе : погода сейчас, прогноз погоды и архив. Всё, что Вы хотите узнать о погоде в Ивделе!

Хотите узнать прогноз погоды в Ивделе? Тогда Вам сюда: Погода в Ивделе

Поиск расширенной информации на нашем сайте:

Другие новости

Новости СМИ2

Главная страница сайта

Новости сайта

03.07.2017

Напоминаем, что на нашем специализированном сайте Метеоцентр.Азия вы можете получить высокодетализированные автоматические прогнозы погоды по пунктам России, СНГ и мира в авиационном формате (включающие направление и скорость ветра, видимость, явления погоды, количество и форму облачности, нижнюю и верхнюю границу облачности).


Погода в Ивделе - сегодня

Время (UTC), дата Ветер
(°,м/с) 
Видим.   Явления Облачность Т
(°С)
Тd
(°С)
f(%) Тe
(°С)
Pmin
(гПа)
dP
(гПа)
Po
(мм)
O2
(г/м3)
Тmin Tmax R s Состояние
почвы
21 13.10.18 300 (СЗ) 10 км    5/3 1000 м верхняя 
[Sc|Ci fib]
+1 -5.3 63 -1  1007.2  0.2  747  300           
00 14.10.18 300 (СЗ) 4{10}  10 км    8/8 1000 м 
[Sc]
+1 -4 69 -1  1007.8  0.6  747  300           
03 14.10.18 310 (СЗ) 20000 м    10/10 600 м кучево-дожд. 
[Cb cap]
+0.9 -4.4 68 -1  1009  1.1  748  301  +0.6        замёрзшая 
06 14.10.18 320 (СЗ) 23000 м  слаб. ливневой снег  10/6 600 м кучево-дожд., средняя 
[Cb cap|Ac As]
+2.2 -3.1 68 1010.7  1.8  749  300           
09 14.10.18 310 (СЗ) 35000 м  в посл. час ливневой снег  10/8 600 м кучево-дожд., средняя 
[Cb cap|Ac As]
+3.1 -1.9 70 +2  1012.5  1.8  751  299           
12 14.10.18 310 (СЗ) 20000 м  в посл. час ливневой снег  10/10 600 м кучево-дожд. 
[Cb cap]
+3.2 -3.9 60 +1  1014.2  1.7  752  300           
18 14.10.18 320 (СЗ) 10 км    10/10 600 м кучево-дожд. 
[Cb cap]
+1.4 -3.9 68 +2  1016.8  0.9  754  303           
21 14.10.18 310 (СЗ) 10 км    10/10 600 м кучево-дожд. 
[Cb cap]
+1.3 -3.9 68 +2  1018  1.1  755  303           
00 15.10.18 280 (З) 10 км    9/9 600 м кучево-дожд. 
[Cb cap]
+0.5 -3.7 73 +1  1018.6  0.6  755  304           
03 15.10.18 290 (З) 20000 м    10/6 1000 м средняя, верхняя 
[Sc|Ac trans|Cs]
-0.6 -4.1 77 1019.8  1.1  756  306  -0.9        замёрзшая 
06 15.10.18 290 (З) 20000 м    10/10 1350 м 
[Sc]
+1.5 -4.5 64 +2  1019.8  0.2  756  303           
09 15.10.18 270 (З) 20000 м    9/9 1000 м 
[Sc]
+2.8 -4.7 58 +4  1019.8  756  302           
12 15.10.18 280 (З) 20000 м    10/10 1300 м 
[Sc]
+2.6 -5.6 55 +3  1019.7  -0.1  756  302           
18 15.10.18 150 (ЮВ) 10 км    9/9 1000 м 
[Sc]
-0.4 -4.3 75 -1  1018.6  -0.9  755  305           
21 15.10.18 160 (Ю) 10 км    10/10 720 м кучево-дожд. 
[Cb cap]
-0.2 -4.1 75 -1  1016.6  -1.9  754  304           
03 16.10.18 160 (Ю) 29000 м  {ливн. осадки}  10/10 600 м кучево-дожд. 
[Cb cap]
-0.3 -1.8 90 -2  1012.6  -2.2  751  303  -0.5    0.7    замёрзшая 
09 16.10.18 180 (Ю) 20000 м    10/10 600 м кучево-дожд. 
[Cb cap]
+3.3 -0.9 74 +3  1010.1  -0.6  749  298           
12 16.10.18 210 (ЮЗ) 20000 м  {ливн. осадки}  10/10 600 м кучево-дожд. 
[Cb cap]
+4.9 +1 76 +5  1008.9  -1.1  748  296           
18 16.10.18 тихо ()   10 км    9/9 1000 м 
[Sc]
+3 +0.3 82 +3  1007.1  -1.3  747  297           
21 16.10.18 120 (ЮВ) 10 км    8/8 1000 м 
[Sc]
+3.6 +1.4 85 +4  1003.9  -3.2  744  296           
03 17.10.18 140 (ЮВ) 35000 м  {ливн. осадки}  10/10 930 м кучево-дожд. 
[Cb cap]
+5.1 +3.8 91 +6  994  -4.6  737  291  +2.1    0.3    влажная 
06 17.10.18 260 (З) 20000 м  {ливн. осадки}  9/9 600 м кучево-дожд. 
[Cb cap]
+11.4 +5.1 65 +11  990.5  -3.2  735  283           
18 17.10.18 310 (СЗ) 10 км    9/5 1000 м верхняя 
[Sc|Ci fib]
+3.1 -2 69 +2  1008.1  1.5  747  298           
21 17.10.18 340 (С) 10 км    8/3 1000 м верхняя 
[Sc|Ci fib]
+3.1 -3.9 60 +2  1009.7  1.6  749  299           
00 18.10.18 330 (СЗ) 10 км    6/6 1000 м 
[Sc]
+2.3 -4.8 59 1011.8  2.1  750  300           
Время (UTC), дата Ветер
(°,м/с) 
Видим.   Явления Облачность Т
(°С)
Тd
(°С)
f(%) Тe
(°С)
Pmin
(гПа)
dP
(гПа)
Po
(мм)
O2
(г/м3)
Тmin Tmax R s Состояние
почвы

Для получения пояснительной информации подведите курсор к названию столбца.

ПОГОДА в Ивделе - архив

Всё, что Вы хотите узнать о погоде в Ивделе - удобно и подробно!

Выберите нужную дату (начиная с 1 января 2015* года) и нажмите кнопку "Найти".
Будут отображены архивные сводки погоды по пункту Ивдель, начиная с указанной даты.


Отображать данные в формате CSV (для использования в таблицах Excel)


Внимание! Наш архив погоды предназначен исключительно для личного некоммерческого использования в познавательных целях. Если Вам необходимы официальные справки о состоянии погоды (для производственных, юридических, коммерческих и т.п. целей), обращайтесь в органы Росгидромета.

*Примечание: данная дата относится к архиву по метеостанциям СССР (Россия, СНГ, Балтия).
Архив по метеостанциям Зарубежной Европы и Азии (кроме Китая) хранится 10 дней, по другим регионам земного шара (Китай, Африка, Америка, Австралия, Океания) - 1 день.

Ивдель - район местоположения метеостанции


Название, широта, долгота, высота метеостанции:
Ивдель 60.7°ш. 60.4°д. 95 м над ур. моря [Российская Федерация]

Дополнительная информация

В oтличие oт бoльшинства пoгoдных сайтoв мы публикуем пoдрoбную метеoинфoрмацию в детальнoм прoфессиoнальнoм фoрмате.

Характеристики температуры и влажнoсти вoздуха измеряются на высoте 2 м в тени вдали oт зданий и деревьев.
Скoрoсть ветра измеряется на высoте 10 м (на урoвне рoста челoвека скoрoсть ветра ниже в 1.5-2 раза). Если метеoстанция нахoдится в гoрoде или в лесу, тo скoрoсть ветра занижена на 2-4 м/с пo сравнению с oткрытым местoм. Скoрoсть ветра над акватoриями крупных рек и oзёр, а также на вершинах хoлмoв на 2-5 м/с выше, чем в oбычных услoвиях.
Атмoсфернoе давление в разных тoчках местнoсти мoжет значительнo oтличаться oт давления на метеoстанции, в зависимoсти oт услoвий рельефа (при пoдъёме на 10 м давление пoнижается примернo на 1 мм рт.ст.).